Location: Cardiff
(53.7833°N, 113.6000°W)
Time: 12:24:16
(UTC+00:00)

CAS-4A - Visible Passes

Search period start: 05 December 2023 00:00
Search period end: 15 December 2023 00:00
Orbit: 493 x 508 km, 43.0° (Epoch: 05 December)

Date Brightness Start Highest point End Pass type
(mag) Time Alt. Az. Time Alt. Az. Time Alt. Az.
05 Dec ? 00:44:38 10° SW 00:47:10 17° S 00:49:42 10° SE visible
05 Dec ? 02:24:01 10° SW 02:25:34 12° SSW 02:25:34 12° SSW visible
06 Dec ? 00:22:43 10° SW 00:25:16 17° S 00:27:48 10° SE visible
06 Dec ? 02:02:11 10° SW 02:03:38 12° SSW 02:04:55 10° S visible
07 Dec ? 00:00:47 10° SW 00:03:19 17° S 00:05:52 10° SE visible
07 Dec ? 01:40:22 10° SW 01:41:42 11° SSW 01:43:01 10° S visible
08 Dec ? 01:18:33 10° SW 01:19:43 11° SSW 01:20:54 10° S visible
09 Dec ? 00:56:43 10° SW 00:57:44 11° SSW 00:58:45 10° S visible
10 Dec ? 00:34:56 10° SSW 00:35:43 11° SSW 00:36:31 10° S visible
11 Dec ? 00:13:13 10° SSW 00:13:41 10° SSW 00:14:09 10° SSW visible
